CW5763 Weather Reports


Display with metric or nautical units.
time (UTC)temp
F
wind
direction
speed
MPH
gust
MPH
rain 1hr
in
rain 24hr
in
rain mn
in
humidity
%
barometer
mb
20260504190005 59 135 0.0 1.0 0.00 0.00 0.00 79 1013.4
20260504185005 60 135 0.0 2.0 0.00 0.00 0.00 78 1013.4
20260504184004 60 135 1.0 3.0 0.00 0.00 0.00 78 1013.4
20260504183004 60 135 2.0 5.0 0.00 0.00 0.00 77 1013.4
20260504182004 61 135 1.0 5.0 0.00 0.00 0.00 75 1013.3
20260504181007 61 132 4.0 7.0 0.00 0.00 0.00 75 1013.3
20260504180005 62 133 3.0 8.0 0.00 0.00 0.00 74 1013.3
20260504175004 62 134 3.0 7.0 0.00 0.00 0.00 74 1013.3
20260504174004 62 130 3.0 5.0 0.00 0.00 0.00 74 1013.3
20260504173004 62 140 2.0 7.0 0.00 0.00 0.00 74 1013.4
20260504172004 62 140 3.0 7.0 0.00 0.00 0.00 75 1013.4
20260504171004 63 138 3.0 8.0 0.00 0.00 0.00 72 1013.3
20260504151004 67 134 9.0 14.0 0.00 0.00 0.00 63 1013.2
20260504141004 69 127 5.0 12.0 0.00 0.00 0.00 66 1013.5
20260504082006 56 331 0.0 1.0 0.00 0.00 0.00 85 1013.8
20260504081006 55 331 0.0 1.0 0.00 0.00 0.00 85 1013.8
20260504050005 52 301 2.0 7.0 0.00 0.00 0.00 92 1012.3
20260504045005 52 345 1.0 5.0 0.00 0.00 0.00 92 1012.4
20260504044005 52 319 1.0 3.0 0.00 0.00 0.00 92 1012.3
20260504043005 52 298 1.0 3.0 0.00 0.00 0.00 92 1012.3
20260504042005 52 281 1.0 3.0 0.00 0.00 0.00 92 1012.4
20260504041005 52 272 1.0 3.0 0.00 0.00 0.00 93 1012.3
20260504035005 52 283 1.0 3.0 0.00 0.00 0.00 92 1012.3
20260504033005 52 288 1.0 5.0 0.00 0.00 0.00 92 1012.1
20260504032005 52 297 1.0 5.0 0.00 0.00 0.00 92 1012.1
20260504031006 52 306 0.0 3.0 0.00 0.00 0.00 92 1012.0
20260504025005 52 298 0.0 3.0 0.00 0.00 0.00 92 1012.3
20260504024005 52 304 1.0 3.0 0.00 0.00 0.00 92 1012.2
20260504023005 52 298 1.0 2.0 0.00 0.00 0.00 92 1012.2
20260504022004 52 298 0.0 2.0 0.00 0.00 0.00 92 1012.2
20260504021005 52 294 1.0 3.0 0.00 0.00 0.00 92 1012.1
20260504020005 52 285 1.0 3.0 0.00 0.00 0.00 92 1012.1
20260504015005 52 306 1.0 3.0 0.00 0.00 0.00 92 1012.1
20260504014005 52 302 1.0 3.0 0.00 0.00 0.00 92 1012.1
20260504012005 52 295 1.0 3.0 0.00 0.00 0.00 92 1011.9
20260504011005 52 295 0.0 2.0 0.00 0.00 0.00 92 1011.9
20260504010006 52 295 1.0 5.0 0.00 0.00 0.00 92 1012.1
20260504005005 52 299 2.0 5.0 0.00 0.00 0.00 92 1012.1
20260504004005 52 305 1.0 3.0 0.00 0.00 0.00 92 1012.1
20260504003005 52 309 1.0 5.0 0.00 0.00 0.00 92 1012.1
20260504002005 52 291 1.0 7.0 0.00 0.00 0.00 92 1012.0
20260504001007 52 287 1.0 3.0 0.00 0.00 0.00 92 1012.1
20260504000005 52 302 1.0 3.0 0.00 0.00 0.00 92 1012.0
20260503235005 52 290 0.0 3.0 0.00 0.00 0.00 92 1011.9
20260503234005 52 290 0.0 3.0 0.00 0.00 0.00 92 1012.0
20260503232005 52 288 0.0 7.0 0.00 0.00 0.00 92 1012.1
20260503231005 52 295 2.0 7.0 0.00 0.00 0.00 92 1012.2
20260503230005 52 316 0.0 3.0 0.00 0.00 0.00 92 1012.1
20260503224005 52 297 1.0 3.0 0.00 0.00 0.00 92 1011.9
20260503223004 52 286 1.0 8.0 0.00 0.00 0.00 92 1011.9
20260503222005 52 296 1.0 8.0 0.00 0.00 0.00 92 1012.0
20260503221005 52 299 1.0 6.0 0.00 0.00 0.00 92 1011.9
20260503220004 53 273 1.0 7.0 0.00 0.00 0.00 93 1011.8
20260503215004 53 279 1.0 3.0 0.00 0.00 0.00 93 1011.7
20260503214005 52 299 1.0 3.0 0.00 0.00 0.00 93 1011.7
20260503213005 52 253 1.0 3.0 0.00 0.00 0.00 92 1011.6
20260503211004 53 259 1.0 6.0 0.00 0.00 0.00 92 1011.4
20260503210005 53 261 0.0 3.0 0.00 0.00 0.00 92 1011.3
20260503205005 53 302 0.0 3.0 0.00 0.00 0.00 92 1011.3
20260503204004 53 315 0.0 5.0 0.00 0.00 0.00 92 1011.1
20260503203005 53 291 2.0 5.0 0.00 0.00 0.00 92 1010.9
20260503202007 53 289 1.0 7.0 0.00 0.00 0.00 92 1010.9
20260503200004 53 261 2.0 5.0 0.00 0.00 0.00 92 1010.8
20260503194004 53 239 0.0 5.0 0.00 0.00 0.00 91 1010.6
20260503193004 54 227 1.0 5.0 0.00 0.00 0.00 91 1010.5
20260503192004 54 277 0.0 3.0 0.00 0.00 0.00 90 1010.5
20260503191004 54 288 1.0 6.0 0.00 0.00 0.00 89 1010.4